GFSFLT1_2pvu_pres_015.txt.gz
Presure
191 190 194 185 178 201 187 190 185 135 171 149 173 156 182 178 149 159 152 145 175 164 184 184 184 189 188 183 186 165 188 190
192 180 182 182 183 170 196 198 183 189 165 167 153 166 172 146 162 136 120 115 135 134 146 186 191 180 165 185 195 189 194 203
189 188 197 136 200 172 175 103 182 133 140 135 165 178 174 164 177 177 150 115 168 134 138 181 157 192 200 186 219 218 223 216
195 194 193 187 190 141 98 121 186 182 139 184 173 171 157 166 158 187 153 175 170 143 177 197 205 218 213 222 221 214 227 232
137 200 204 209 124 115 137 177 188 186 186 186 179 155 177 182 166 187 180 181 126 198 205 216 220 213 218 219 212 216 226 239
132 192 188 183 177 165 170 180 180 177 160 178 180 186 184 181 185 189 194 201 206 212 211 195 205 220 218 252 265 269 264 280
181 181 185 173 183 163 170 171 174 168 185 183 182 163 155 195 195 201 208 215 208 203 204 229 201 181 249 267 277 269 269 309
180 179 178 174 173 172 178 129 111 142 186 185 185 196 203 211 214 212 203 184 220 224 235 220 236 245 279 280 281 275 292 306
170 171 182 181 177 176 181 130 177 144 123 197 203 204 203 204 197 229 232 229 237 239 244 245 261 267 298 288 300 306 317 314
178 179 179 182 118 135 171 194 194 194 207 201 202 199 206 224 225 215 168 238 246 255 260 266 273 305 307 306 312 321 322 320
176 167 114 181 191 195 197 192 209 205 139 201 198 219 219 217 221 229 249 259 270 268 271 293 309 311 319 335 329 294 280 286
170 174 133 190 154 125 126 147 201 198 202 212 199 205 225 221 227 255 277 269 270 279 303 317 317 300 281 280 289 392 423 432
112 113 114 189 202 209 209 202 208 216 213 212 212 220 216 255 262 288 290 271 284 310 319 284 277 293 377 440 415 403 426 417
196 170 187 202 192 202 207 200 213 209 206 211 211 214 234 266 283 302 284 306 321 311 273 313 423 419 400 388 392 431 422 410
191 185 197 204 176 198 200 214 208 211 210 214 213 232 255 295 302 288 315 301 276 308 413 427 405 386 426 426 421 414 417 416
188 198 144 114 127 133 135 198 208 212 211 216 234 298 310 301 307 310 296 280 410 432 408 388 425 419 416 415 411 407 403 399
188 150 117 124 127 191 214 213 211 215 221 248 302 316 310 313 318 285 324 438 415 397 407 410 398 388 381 383 389 395 393 388
203 200 199 203 211 213 204 221 217 242 243 317 312 317 319 298 307 457 427 398 404 415 401 388 378 372 366 362 361 362 363 364
202 197 206 210 214 222 214 230 241 262 267 320 322 303 272 317 429 412 401 415 402 390 377 364 349 346 346 346 344 342 349 355

GFSFLT1_2pvu_pres_021.txt.gz
Presure
221 222 218 222 215 210 206 204 205 206 184 198 197 193 188 157 125 172 169 179 182 183 181 186 191 196 198 142 145 206 208 149
227 221 206 198 202 205 203 195 194 143 142 185 188 185 178 174 180 181 183 182 189 196 207 126 120 125 208 203 204 201 143 181
192 196 204 206 195 190 184 183 184 183 184 181 185 189 186 183 184 188 196 204 205 206 205 204 209 203 198 156 153 202 203 154
207 199 195 185 182 179 172 182 186 183 189 185 189 188 185 186 191 204 203 198 209 134 163 185 202 205 215 213 213 214 202 219
196 193 183 182 181 178 191 189 186 182 181 181 184 192 188 199 200 189 193 196 139 202 206 206 201 200 199 217 221 219 179 221
190 181 183 172 183 186 187 184 181 181 136 186 182 191 144 191 196 114 191 158 194 194 205 212 217 218 219 224 224 221 219 223
183 180 175 176 183 183 180 181 174 165 179 123 140 114 192 186 186 184 188 194 203 197 202 214 220 226 232 226 223 220 229 229
181 164 179 175 187 174 178 177 110 173 181 97 191 193 189 189 192 191 197 200 205 214 209 219 228 228 220 229 228 229 254 256
175 182 173 179 177 174 180 180 113 183 194 194 165 185 189 193 135 127 126 131 211 210 224 231 234 227 236 239 251 257 255 269
186 172 175 87 175 177 179 187 192 184 126 195 186 189 185 120 137 208 217 223 219 233 237 239 232 245 253 261 257 271 337 345
179 176 174 181 180 180 198 189 110 176 198 197 187 191 191 205 214 220 224 236 235 231 243 251 258 268 271 272 333 347 348 312
172 173 185 181 180 183 183 118 194 199 189 192 193 173 211 214 226 238 238 238 244 248 254 266 317 341 341 352 343 297 406 423
178 181 182 184 185 113 178 192 195 192 198 198 203 210 226 233 240 244 244 251 259 268 338 340 339 355 336 295 418 428 423 424
181 184 108 119 189 190 199 200 190 190 191 207 215 226 238 243 248 253 279 349 327 338 339 336 290 287 434 431 417 410 403 396
180 187 121 148 193 198 189 194 192 208 213 228 235 250 255 255 305 281 255 323 307 279 277 406 433 419 413 402 398 391 385 381
113 102 108 177 188 191 194 198 204 226 230 249 251 270 358 295 329 359 308 282 269 308 439 424 411 404 400 383 376 368 364 361
105 196 197 196 197 198 204 222 225 252 260 347 365 368 283 290 284 298 301 320 408 422 413 406 397 385 380 368 362 353 351 352
197 190 196 198 209 203 224 236 243 302 308 345 281 272 286 292 299 315 333 427 411 405 399 389 380 374 366 355 361 361 354 349
197 192 194 214 202 218 238 239 268 296 287 266 258 289 294 308 325 395 420 402 392 396 384 379 369 360 365 355 346 342 340 343

GFSFLT1_2pvu_pres_024.txt.gz
Presure
224 229 234 235 211 208 200 210 214 201 198 185 185 188 176 181 183 187 190 189 187 178 193 198 203 198 199 209 209 205 185 200
231 218 205 200 193 208 211 198 193 190 187 191 193 184 184 183 176 176 180 185 192 202 200 197 206 199 194 131 116 196 194 195
201 201 190 197 212 203 199 191 190 184 188 189 186 188 185 185 182 189 185 148 184 195 118 194 194 199 194 198 200 185 189 180
200 191 195 198 203 195 188 184 183 183 193 184 183 185 183 168 191 192 162 200 133 203 193 196 199 203 204 208 206 210 204 216
192 195 203 208 198 189 182 188 182 182 190 184 183 187 188 147 102 187 135 195 195 193 195 183 196 198 209 211 213 221 223 231
195 190 204 201 182 184 184 187 181 179 181 181 182 182 183 186 191 189 195 193 190 197 195 189 127 124 165 141 151 221 229 236
199 202 193 178 189 186 191 183 182 181 184 187 184 115 104 111 142 196 186 157 137 137 143 205 212 226 233 229 228 239 238 244
196 184 182 185 184 189 182 179 179 180 187 168 184 186 118 192 188 184 203 187 209 184 216 226 233 225 244 243 242 256 256 257
183 187 181 189 185 182 180 178 181 183 182 184 127 179 184 189 197 207 200 197 194 207 227 242 229 241 253 262 268 267 280 350
178 173 184 183 177 179 182 184 183 183 109 191 194 192 191 199 166 203 178 227 232 239 241 248 250 274 274 284 286 339 281 359
187 189 187 182 181 175 87 185 180 122 194 187 190 194 162 194 207 219 236 242 229 254 263 266 287 318 317 281 272 320 286 278
179 176 180 188 185 189 187 164 137 137 181 192 197 163 211 217 225 242 242 242 253 279 270 314 276 270 270 280 296 303 421 433
182 183 187 89 188 184 184 129 146 189 186 202 161 199 225 237 251 237 240 259 277 268 280 258 266 307 304 351 441 430 421 412
184 188 188 184 153 182 104 192 194 202 195 213 218 225 230 242 247 255 284 277 307 299 310 322 332 372 429 419 410 410 403 397
179 181 181 183 97 193 195 198 193 204 210 228 224 247 241 259 293 314 303 318 317 318 323 372 434 414 404 396 395 387 384 374
182 181 119 108 117 188 184 204 188 218 224 230 246 266 261 272 346 333 327 333 335 344 441 425 403 396 392 391 381 376 368 360
194 98 196 124 194 199 209 177 217 233 247 252 251 265 318 347 338 338 336 340 429 426 410 397 384 391 389 379 367 366 367 361
184 185 196 198 131 211 223 214 226 249 245 259 270 266 350 343 339 341 377 426 412 401 388 388 395 383 375 364 365 354 350 348
192 140 196 195 207 216 220 224 243 249 277 278 306 352 343 344 388 435 414 399 394 392 418 396 378 366 366 362 348 341 356 426

GFSFLT1_2pvu_pres_030.txt.gz
Presure
245 240 216 189 180 217 240 217 223 219 215 205 222 191 192 202 206 207 193 186 183 183 192 182 184 129 182 192 189 195 203 195
246 233 135 216 215 234 218 221 223 205 212 192 201 207 211 214 206 178 182 189 187 196 190 189 184 178 179 183 112 194 184 194
212 207 220 215 213 211 226 232 213 205 200 187 199 206 199 184 183 188 191 192 194 183 193 199 187 189 196 162 190 194 198 200
220 214 212 206 212 216 205 214 194 201 194 199 200 191 183 192 187 195 199 198 197 195 195 195 199 207 194 200 201 195 190 198
215 218 214 214 214 217 189 190 192 194 199 196 191 191 192 193 191 190 194 193 198 200 203 175 198 202 202 185 201 228 229 221
212 214 214 207 195 203 197 196 199 192 192 193 193 191 195 189 195 196 194 193 190 110 201 201 200 195 214 223 219 227 232 239
208 207 205 194 202 202 192 190 192 193 191 188 197 188 189 194 191 123 191 196 193 194 196 193 203 218 217 221 233 248 255 262
206 203 195 199 192 188 193 192 193 194 199 194 184 193 193 172 151 191 199 197 199 201 204 208 216 226 241 248 257 266 258 280
199 193 194 182 187 180 189 192 198 194 183 176 187 191 105 191 185 195 196 194 196 210 218 227 247 255 252 254 265 276 292 307
193 186 184 192 186 204 210 194 191 179 181 191 184 184 178 191 134 195 194 215 224 233 244 256 262 237 266 279 284 302 341 335
195 206 213 215 207 197 191 184 189 192 188 187 139 188 193 194 195 206 215 223 238 242 259 264 252 270 285 297 382 449 450 445
214 205 197 197 191 187 190 196 183 190 189 124 120 194 196 177 207 210 224 242 240 262 251 250 279 281 376 445 441 426 417 415
201 204 195 181 192 179 176 190 182 181 180 189 199 196 195 207 224 221 241 244 266 249 270 212 362 461 437 436 427 416 433 420
194 177 181 181 179 182 182 182 178 186 196 200 202 205 206 224 231 238 233 255 258 277 325 329 439 438 417 431 470 453 432 426
198 138 183 181 185 182 181 179 190 199 195 206 206 216 227 231 245 245 258 261 274 384 444 438 420 421 428 434 378 433 412 394
164 193 189 190 180 181 181 188 192 203 203 212 221 221 226 246 246 272 260 363 454 491 450 430 428 453 385 378 375 384 377 368
193 194 182 172 181 188 183 191 203 200 207 216 222 234 243 255 280 262 397 516 471 460 457 447 395 372 389 381 384 364 358 354
191 182 179 183 185 183 188 202 202 206 219 227 230 244 266 253 269 433 501 459 430 403 390 389 414 401 394 372 362 355 345 339
187 181 183 188 194 193 201 207 208 228 228 236 243 260 240 274 360 479 437 409 394 444 470 435 404 387 368 360 352 338 334 344